Flag for Germany Weather past 2 weeks in Neu-Ulm, Bavaria, Germany

Now
61 °F

Passing clouds.


Feels Like: 61 °F
Forecast: 54 / 78 °F
Wind: 6 mph from Northeast

Location: Laupheim Airport

Current Time: Jul 31, 2015 at 11:38:13 PM

Latest Report: Jul 31, 2015 at 10:20 PM


Visibility: N/A

Pressure: 29.95 "Hg

Humidity: 55%

Dew point: 45 °F

Location of Neu-UlmLocation

Historic Weather in Neu-Ulm — Graph

°F

Neu-Ulm temperature yesterday

Maximum temperature yesterday: 68 °F (at 4:20 PM)
Minimum temperature yesterday: 46 °F (at 4:20 AM)
Average temperature yesterday: 58 °F

Past Weeks' High & Low Weather Summary

 TemperatureHumidityPressure
High91 °F (Jul 17, 3:20 PM)100% (Jul 19, 5:01 AM)30.18 "Hg (Jul 19, 5:01 AM)
Low46 °F (Jul 30, 4:20 AM)29% (Jul 17, 2:20 PM)29.77 "Hg (Jul 24, 6:20 PM)
Average68 °F66%29.98 "Hg
* Reported Jul 16 10:20 PM — Jul 31 10:20 PM, Neu-Ulm, Weather by CustomWeather, © 2015

Note: Actual official high and low records may vary slightly from our data, if they occured in-between our weather recording intervals... More about our weather records

Advertising

Neu-Ulm weather history for previous 24 hours

 ConditionsComfort  
Time TempWeatherWind HumidityBarometerVisibility
10:20 PM
Fri, Jul 31
61 °FPassing clouds.6 mph55%29.95 "HgN/A
9:20 PM63 °FBroken clouds.6 mph52%29.95 "HgN/A
8:20 PM68 °FBroken clouds.7 mph43%29.95 "HgN/A
7:20 PM70 °FPartly sunny.12 mph38%29.95 "HgN/A
6:20 PM70 °FPartly sunny.12 mph38%29.98 "HgN/A
5:20 PM72 °FPartly sunny.12 mph36%29.98 "HgN/A
4:20 PM72 °FPartly sunny.13 mph36%29.98 "HgN/A
3:20 PM72 °FPartly sunny.10 mph38%30.01 "HgN/A
2:20 PM70 °FPartly sunny.9 mph40%30.01 "HgN/A
1:20 PM68 °FPassing clouds.9 mph43%30.04 "HgN/A
12:20 PM66 °FPassing clouds.12 mph46%30.07 "HgN/A
11:20 AM64 °FPassing clouds.10 mph49%30.07 "HgN/A
10:20 AM61 °FPassing clouds.8 mph59%30.09 "HgN/A
9:20 AM57 °FPassing clouds.8 mph67%30.09 "HgN/A
8:20 AM54 °FPassing clouds.5 mph77%30.09 "HgN/A
7:20 AM50 °FPassing clouds.1 mph88%30.09 "HgN/A
6:20 AM48 °FPassing clouds.No wind87%30.09 "HgN/A
5:20 AM50 °FPassing clouds.No wind82%30.07 "HgN/A
4:20 AM50 °FPartly cloudy.1 mph88%30.09 "HgN/A
3:20 AM52 °FPartly cloudy.2 mph82%30.09 "HgN/A
2:20 AM52 °FPassing clouds.2 mph77%30.09 "HgN/A
1:20 AM54 °FPassing clouds.3 mph77%30.09 "HgN/A
12:20 AM55 °FPassing clouds.3 mph77%30.07 "HgN/A
11:20 PM
Thu, Jul 30
57 °FPassing clouds.1 mph63%30.07 "HgN/A
Weather by CustomWeather, © 2015

See weather overviewHow to use our weather pages